Zurück zum Katalog

STARLINK-5831

AktivKommunikationVLEO
NORAD 57332·PAYLOAD·🇺🇸 United States

Gestartet Jul 16, 2023 von Cape Canaveral Space Force Station

Loading…

Nächste Überflüge (nächste 24 Stunden)

TLE

AktuellSource: CelesTrak SupGP

Epoche: Sep 15, 2026, 02:11 UTC

1 57332C 23099E   26258.09145833 -.00010902  00000+0 -39488-3 0  2585
2 57332  42.9998 262.6873 0001495 264.7201 104.5885 15.27581393    14

Verfolge STARLINK-5831 in Echtzeit mit AllMySat

Download on the App Store